Date,TemperatureHighF,TemperatureAvgF,TemperatureLowF,DewpointHighF,DewpointAvgF,DewpointLowF,HumidityHigh,HumidityAvg,HumidityLow,PressureMaxIn,PressureMinIn,WindSpeedMaxMPH,WindSpeedAvgMPH,GustSpeedMaxMPH,PrecipitationSumIn
2013-1-1,23,18,14,20,15,10,91,87,83,30.37,30.23,20,7,22,0.00
2013-1-4,42,36,32,34,29,24,80,76,71,30.30,30.15,7,2,19,0.00
2013-1-5,44,32,22,34,26,18,86,77,60,30.45,30.11,7,1,22,0.00
2013-1-6,41,34,28,23,22,21,77,62,45,30.41,30.35,8,1,13,0.00
2013-1-7,50,38,29,30,26,22,74,61,41,30.35,30.09,16,5,29,0.00
2013-1-8,55,44,35,36,32,28,81,66,44,30.23,30.00,16,4,34,0.00
2013-1-9,55,42,30,37,32,27,91,70,46,30.45,30.23,6,0,13,0.00
2013-1-10,50,44,39,50,40,30,100,88,57,30.38,29.75,15,6,34,0.39
2013-1-11,59,54,49,50,48,38,100,81,49,29.77,29.59,20,7,34,0.00
2013-1-12,57,30,22,37,19,12,81,63,32,30.15,29.75,25,7,34,0.00
2013-1-13,27,18,12,12,9,6,77,66,48,30.45,30.12,13,3,24,0.00
2013-1-14,32,20,10,13,9,6,88,66,36,30.61,30.45,15,2,18,0.00
2013-1-15,34,22,14,14,11,9,87,66,37,30.49,30.26,7,1,12,0.00
2013-1-16,47,32,19,30,21,12,77,65,48,30.26,30.10,9,2,18,0.00
2013-1-17,48,36,28,31,29,26,94,75,49,30.54,30.25,16,2,24,0.00
2013-1-18,57,44,34,34,31,28,79,61,40,30.46,30.06,16,7,36,0.00
2013-1-19,61,49,42,34,32,29,71,54,31,30.28,30.01,14,4,29,0.00
2013-1-20,42,30,20,30,13,9,68,51,37,30.46,30.28,26,9,29,0.00
2013-1-21,22,18,14,12,7,1,83,63,41,30.53,30.45,20,4,28,0.00
2013-1-22,30,21,14,12,8,4,70,58,44,30.51,30.35,13,4,18,0.00
2013-1-23,47,31,15,26,18,10,81,61,42,30.48,30.24,23,5,29,0.00
2013-1-24,27,21,10,16,8,1,68,56,43,30.57,30.25,22,8,29,0.00
2013-1-25,47,33,21,24,18,12,75,55,37,30.31,30.23,10,1,16,0.00
2013-1-26,57,42,29,29,26,22,76,56,32,30.34,30.12,15,4,22,0.00
2013-1-27,61,50,41,56,45,28,90,83,51,30.13,29.76,20,8,36,0.12
2013-1-28,75,66,59,62,59,56,91,79,56,29.85,29.63,16,6,42,0.00
2013-1-29,68,49,36,63,46,35,97,93,80,29.65,29.42,21,6,37,1.53
2013-1-30,36,27,21,35,23,16,97,84,71,30.04,29.51,21,6,40,0.02
2013-1-31,24,18,8,20,10,1,86,72,55,30.58,30.02,15,4,32,0.00
2013-2-1,26,17,6,16,8,0,80,68,56,30.57,30.24,12,3,18,0.00
2013-2-2,49,37,26,35,27,16,75,67,59,30.30,30.14,8,2,18,0.00
2013-2-3,49,40,32,33,26,18,79,59,36,30.33,29.88,13,3,22,0.00
2013-2-4,49,39,25,32,28,22,91,67,50,30.03,29.81,23,5,29,0.00
2013-2-5,59,40,23,36,29,21,93,68,39,30.14,29.95,17,3,28,0.00
2013-2-6,62,48,34,44,35,27,80,63,46,30.15,29.90,20,8,29,0.01
2013-2-7,50,44,32,47,40,28,97,88,73,30.23,29.87,22,5,34,1.01
2013-2-8,44,34,30,32,28,26,90,80,60,30.39,30.23,18,5,21,0.00
2013-2-9,48,37,29,38,32,27,92,83,60,30.29,29.79,18,10,30,0.04
2013-2-10,51,45,37,47,36,25,97,73,50,29.94,29.51,21,11,37,0.05
2013-2-11,48,38,31,28,25,23,77,60,43,30.22,29.94,10,3,28,0.00
2013-2-12,42,35,25,29,25,21,86,69,49,30.22,30.01,6,0,10,0.00
2013-2-13,57,42,28,30,27,24,85,58,32,30.01,29.84,10,2,18,0.00
2013-2-14,50,42,34,33,29,23,76,60,40,30.21,29.87,9,3,22,0.00
2013-2-15,37,30,21,27,17,8,91,60,34,30.43,30.21,20,5,29,0.00
2013-2-16,34,29,19,24,22,18,94,76,56,30.39,30.13,10,3,18,0.02
2013-2-17,55,35,28,35,25,22,80,67,46,30.13,29.91,17,4,22,0.00
2013-2-19,32,24,22,13,7,6,50,47,45,30.41,30.16,13,5,18,0.00
2013-2-20,25,22,16,15,9,3,71,58,46,30.45,30.24,13,6,20,0.00
2013-2-21,27,24,21,26,21,15,95,88,70,30.25,29.80,18,7,36,0.00
2013-2-22,30,24,17,24,20,14,95,85,67,30.13,29.83,10,3,20,0.02
2013-2-23,37,23,10,22,16,7,93,76,52,30.14,30.01,7,1,16,0.12
2013-2-24,49,34,21,30,25,18,90,69,47,30.08,29.93,14,4,21,0.02
2013-2-25,38,34,31,33,28,25,96,80,67,29.99,29.69,28,10,37,0.02
2013-2-26,34,32,30,32,31,29,97,96,94,29.89,29.59,28,12,42,0.07
2013-2-27,36,32,29,29,28,26,96,86,71,30.09,29.87,10,3,21,0.04
2013-2-28,33,31,28,28,26,24,85,82,77,30.24,30.08,14,5,22,0.00
2013-3-10,42,39,38,37,25,22,96,58,45,30.36,29.67,3,0,14,0.00
2013-3-13,37,36,36,26,25,23,67,63,57,30.34,30.32,3,1,8,0.00
2013-3-14,73,48,36,43,32,26,68,56,33,30.32,30.06,12,4,24,0.00
2013-3-15,66,64,62,48,47,47,59,55,51,29.68,29.63,5,1,14,0.00
2013-3-16,63,46,40,47,38,33,86,73,54,30.01,29.66,30,14,37,0.00
2013-3-17,34,34,33,33,32,31,95,93,90,29.99,29.79,15,6,28,0.13
2013-3-18,54,42,34,37,30,19,97,68,30,30.09,29.78,12,4,26,0.01
2013-3-19,39,34,28,36,26,16,97,74,43,30.30,30.07,7,0,10,0.09
2013-3-20,39,32,25,34,16,8,100,56,31,30.44,30.17,23,6,37,0.00
2013-3-21,29,27,24,28,19,12,94,74,53,30.17,29.95,14,4,22,0.00
2013-3-22,33,31,29,31,29,27,95,92,85,30.06,29.99,10,4,15,0.00
2013-3-23,38,34,32,32,30,28,97,88,67,30.07,29.89,20,8,30,0.03
2013-3-24,33,28,23,32,26,18,97,93,83,30.13,29.84,25,10,37,0.01
2013-3-25,34,27,21,27,23,17,91,83,72,30.39,30.11,10,4,24,0.00
2013-3-26,39,29,20,24,21,18,92,74,50,30.47,30.35,8,1,13,0.20
2013-3-27,51,37,24,35,28,20,88,69,48,30.37,30.23,16,4,26,0.02
2013-3-28,67,52,37,43,38,32,83,60,40,30.25,30.12,10,2,18,0.00
2013-3-29,69,56,42,47,41,38,86,61,34,30.20,30.08,14,4,22,0.00
2013-3-30,67,58,51,56,51,46,95,80,64,30.08,29.84,13,3,28,0.05
2013-3-31,65,56,45,53,42,31,96,64,33,29.97,29.89,22,2,29,0.00
2013-4-1,51,41,34,35,22,12,81,48,29,30.31,29.97,28,11,34,0.00
2013-4-2,51,40,30,24,21,18,65,48,32,30.37,30.27,15,3,20,0.00
2013-4-3,51,42,33,27,24,20,70,50,35,30.39,30.25,20,4,28,0.00
2013-4-4,64,51,38,33,27,21,64,42,24,30.26,30.07,16,2,20,0.00
2013-4-5,70,55,39,45,39,32,81,56,36,30.17,29.85,16,4,29,0.00
2013-4-6,77,64,56,52,46,40,64,52,30,29.86,29.63,16,7,42,0.00
2013-4-7,72,60,45,57,48,41,92,68,37,29.84,29.62,23,4,38,0.37
2013-4-8,74,65,56,63,60,53,100,84,69,29.69,29.64,20,4,28,0.02
2013-4-9,72,68,55,64,61,53,94,81,74,29.74,29.60,17,7,27,0.38
2013-4-10,55,42,37,52,41,36,97,96,93,29.92,29.68,18,4,28,0.97
2013-4-11,42,36,33,36,30,27,97,79,62,29.83,29.75,12,4,21,0.00
2013-4-12,53,40,31,35,31,27,88,69,46,30.06,29.81,10,3,21,0.00
2013-4-13,66,51,32,48,39,30,93,67,48,30.08,29.72,20,4,32,0.00
2013-4-14,74,63,55,58,49,37,79,61,47,29.71,29.46,26,8,45,0.06
2013-4-15,57,49,44,45,37,32,91,65,45,30.01,29.72,24,7,28,0.19
2013-4-16,47,44,42,39,35,32,77,68,58,30.15,30.00,22,11,34,0.00
2013-4-17,53,49,46,53,47,39,100,95,77,30.09,29.64,16,5,24,0.51
2013-4-18,48,40,36,48,36,28,100,88,70,29.97,29.56,16,7,26,0.51
2013-4-19,53,42,32,30,27,22,82,57,31,30.13,29.94,14,5,24,0.00
2013-4-20,58,46,30,37,30,25,82,56,40,30.27,30.13,14,4,24,0.00
2013-4-21,68,57,47,46,41,34,72,56,38,30.22,30.09,17,6,28,0.00
2013-4-22,66,56,48,50,45,41,90,66,47,30.13,29.89,20,5,28,0.02
2013-4-23,49,36,34,46,34,32,95,92,82,30.22,30.00,26,12,37,0.57
2013-4-24,55,42,29,34,30,26,96,67,38,30.31,30.19,10,2,20,0.02
2013-4-25,70,54,36,43,38,32,88,58,32,30.33,30.14,9,2,24,0.00
2013-4-26,56,52,48,49,47,41,97,84,57,30.23,30.14,25,5,40,0.57
2013-4-27,55,50,47,51,48,47,100,93,83,30.20,30.01,12,3,16,0.50
2013-4-28,76,59,43,58,52,42,100,78,45,30.01,29.77,10,2,21,0.00
2013-4-29,85,71,58,66,60,53,87,69,49,29.79,29.59,18,5,32,0.00
2013-4-30,84,75,64,59,56,52,73,54,38,29.78,29.62,21,7,43,0.00
2013-5-1,84,67,43,64,54,39,89,64,44,30.15,29.77,32,8,42,0.06
2013-5-2,43,37,33,39,36,32,100,94,89,30.41,30.15,33,15,44,0.61
2013-5-3,39,37,34,37,35,34,100,93,81,30.35,29.94,23,7,34,0.46
2013-5-4,49,41,33,43,38,32,100,90,75,30.06,29.86,18,5,28,0.17
2013-5-5,56,49,45,51,47,43,100,94,82,30.13,30.03,14,3,18,0.01
2013-5-6,69,57,50,58,52,48,95,85,62,30.12,30.02,15,3,18,0.00
2013-5-7,78,63,47,58,52,47,100,72,36,30.08,29.95,9,1,16,0.00
2013-5-8,76,65,55,61,57,50,96,77,58,29.99,29.86,16,3,26,0.06
2013-5-9,78,65,59,64,60,57,100,83,53,29.91,29.81,9,1,18,0.27
2013-5-10,68,59,51,57,52,48,97,81,51,30.04,29.88,17,4,30,0.00
2013-5-11,67,57,48,51,38,28,96,56,25,30.24,30.04,32,7,40,0.00
2013-5-12,68,54,37,44,33,28,84,50,25,30.29,30.13,13,1,18,0.00
2013-5-13,79,64,46,58,50,42,89,64,42,30.16,29.92,13,3,21,0.00
2013-5-14,94,79,66,60,54,48,74,46,22,29.91,29.75,15,5,36,0.00
2013-5-15,88,76,67,69,62,55,85,61,45,29.85,29.76,9,4,24,0.00
2013-5-16,81,71,61,66,62,59,94,77,56,29.84,29.75,10,2,20,0.00
2013-5-17,79,68,59,65,62,58,100,82,58,29.90,29.81,7,1,15,0.00
2013-5-18,86,74,61,73,67,59,97,80,59,29.89,29.68,13,4,29,0.00
2013-5-19,84,71,63,73,65,60,100,84,64,29.80,29.52,22,4,34,1.07
2013-5-20,80,69,61,70,64,60,95,86,68,29.72,29.57,13,3,28,0.01
2013-5-21,77,67,57,64,54,51,89,65,46,29.74,29.64,7,1,18,0.00
2013-5-22,68,62,54,55,52,50,87,71,59,29.92,29.70,7,1,13,0.00
2013-5-23,68,60,52,56,52,49,90,77,63,30.20,29.93,20,3,34,0.00
2013-5-24,74,62,48,56,51,47,100,69,46,30.30,30.11,13,4,28,0.00
2013-5-25,84,72,62,67,60,48,83,67,54,30.14,29.97,13,3,26,0.00
2013-5-26,85,76,68,71,68,65,91,77,62,30.01,29.84,14,4,32,0.00
2013-5-27,82,72,63,73,66,62,100,83,68,29.89,29.63,17,6,30,2.05
2013-5-28,80,75,72,73,70,67,92,83,75,29.76,29.60,12,4,26,0.04
2013-5-29,81,75,66,70,68,62,91,78,66,29.77,29.58,18,7,37,0.11
2013-5-30,74,65,62,67,63,61,100,92,75,29.70,29.57,18,4,29,1.65
2013-5-31,76,68,61,69,65,61,100,91,80,29.72,29.67,8,2,20,1.65
2013-6-1,71,67,61,60,57,54,80,70,55,29.96,29.77,6,1,15,1.65
2013-6-2,65,58,50,55,51,48,93,77,58,30.07,29.95,15,2,22,0.00
2013-6-3,76,62,45,60,53,44,100,76,56,30.07,29.87,10,3,21,0.00
2013-6-4,78,67,63,68,62,58,94,83,69,29.94,29.81,10,3,24,0.15
2013-6-5,68,64,62,66,63,60,100,94,87,29.96,29.88,14,2,22,0.74
2013-6-6,76,67,59,63,57,53,97,73,48,29.94,29.88,17,2,24,0.00
2013-6-7,75,65,55,58,54,51,96,72,44,29.98,29.88,13,2,20,0.00
2013-6-8,82,69,53,64,58,52,95,72,52,29.92,29.73,15,4,32,0.07
2013-6-9,83,71,62,65,61,54,100,73,37,29.82,29.72,10,2,15,0.48
2013-6-10,91,75,61,66,61,56,89,65,32,29.86,29.77,10,1,12,0.00
2013-6-11,96,83,72,72,68,64,93,64,38,29.83,29.73,13,4,27,0.00
2013-6-12,96,86,77,74,71,63,81,64,46,29.86,29.69,16,4,34,0.00
2013-6-13,89,75,63,65,61,56,84,64,43,30.00,29.86,17,4,28,0.00
2013-6-14,91,77,66,76,69,63,93,78,59,29.98,29.82,13,3,22,0.00
2013-6-15,94,77,67,77,71,64,100,84,50,29.96,29.82,25,3,50,1.59
2013-6-16,84,74,66,75,71,66,100,91,73,29.93,29.85,9,1,15,0.00
2013-6-17,83,73,66,74,69,65,96,86,71,29.96,29.85,7,1,16,0.04
2013-6-18,88,74,64,72,66,61,100,81,47,29.98,29.92,14,2,20,0.01
2013-6-19,88,76,63,72,68,63,100,77,49,30.00,29.90,10,2,20,0.01
2013-6-20,90,80,69,76,72,67,94,77,61,29.96,29.84,17,5,32,0.00
2013-6-21,93,83,76,77,73,70,87,73,55,29.92,29.84,15,6,32,0.00
2013-6-22,94,83,75,76,72,69,84,70,51,29.93,29.78,13,5,28,0.00
2013-6-23,92,82,74,77,73,70,89,73,55,29.89,29.72,20,4,40,0.00
2013-6-24,91,83,77,74,71,68,80,67,49,29.89,29.72,16,6,32,0.00
2013-6-25,90,81,75,75,72,70,94,74,58,29.83,29.66,17,5,32,0.07
2013-6-26,98,86,76,78,70,61,87,62,30,29.81,29.66,14,2,20,0.00
2013-6-27,91,79,71,80,70,66,90,75,60,29.94,29.76,21,2,37,0.09
2013-6-28,87,77,69,74,66,59,100,73,41,29.89,29.82,17,2,30,0.01
2013-6-29,84,75,64,64,60,56,81,61,39,29.83,29.76,24,5,40,0.00
2013-6-30,79,71,62,61,58,56,83,65,49,30.00,29.83,21,10,30,0.00
2013-7-1,81,72,60,59,55,49,85,57,35,30.07,30.00,26,8,34,0.00
2013-7-2,84,73,59,59,54,50,88,56,34,30.09,30.01,16,2,24,0.00
2013-7-3,89,71,60,61,58,53,91,67,30,30.04,29.94,22,1,29,0.10
2013-7-4,88,73,59,63,58,55,89,63,35,30.01,29.91,10,2,16,0.00
2013-7-5,91,79,64,67,62,59,86,59,38,29.96,29.84,10,3,21,0.00
2013-7-6,89,76,69,68,65,62,84,68,49,29.95,29.85,15,3,24,0.08
2013-7-7,92,82,73,72,68,66,82,63,47,29.93,29.85,13,4,24,0.03
2013-7-8,97,84,76,74,69,66,73,62,42,29.97,29.90,9,2,21,0.00
2013-7-9,101,88,79,77,73,70,77,62,42,29.94,29.77,13,3,24,0.00
2013-7-10,93,85,78,74,68,59,73,59,32,29.96,29.82,17,4,26,0.00
2013-7-11,90,79,69,64,62,58,77,58,36,30.04,29.92,12,2,20,0.00
2013-7-12,91,78,68,69,64,61,80,62,48,30.00,29.91,10,3,22,0.00
2013-7-13,93,81,71,71,65,59,68,59,46,29.99,29.90,9,3,21,0.00
2013-7-14,90,78,67,65,62,58,85,61,36,30.06,29.94,10,2,21,0.00
2013-7-15,92,80,70,71,68,63,92,69,49,30.13,30.04,7,1,20,0.00
2013-7-16,94,83,71,73,70,67,93,66,42,30.20,30.12,8,1,14,0.00
2013-7-17,94,84,73,74,72,70,90,68,49,30.25,30.12,13,1,15,0.00
2013-7-18,98,86,72,73,70,66,93,62,38,30.15,29.93,6,1,16,0.00
2013-7-19,100,88,75,71,68,66,77,54,34,29.94,29.78,6,1,18,0.00
2013-7-20,90,79,72,75,71,69,96,79,52,29.87,29.79,17,1,24,0.23
2013-7-21,90,80,76,74,72,70,90,77,53,29.86,29.75,9,1,13,0.01
2013-7-22,96,82,70,77,71,68,96,71,41,29.81,29.72,9,1,18,0.00
2013-7-23,88,80,72,75,71,65,93,75,57,29.87,29.74,17,3,27,0.00
2013-7-24,87,76,68,65,61,57,79,60,42,30.00,29.87,17,3,22,0.00
2013-7-25,87,75,66,71,65,61,93,75,47,30.05,29.96,13,1,18,0.03
2013-7-26,86,76,69,71,66,54,93,73,45,30.02,29.93,18,4,29,0.03
2013-7-27,79,68,58,58,54,50,90,62,40,30.08,29.95,16,4,22,0.00
2013-7-28,77,68,58,58,55,49,90,66,44,30.04,29.99,9,0,13,0.00
2013-7-29,71,67,61,71,64,57,100,92,73,30.05,29.93,7,1,15,0.75
2013-7-30,82,76,71,76,73,71,100,91,76,30.01,29.93,14,3,18,0.51
2013-7-31,86,77,71,72,69,66,95,77,54,30.08,29.99,13,3,21,0.00
2013-8-1,92,78,66,71,68,65,100,72,45,30.06,29.91,9,1,15,0.00
2013-8-2,89,77,66,76,72,66,100,84,64,29.95,29.79,8,1,21,0.49
2013-8-3,85,78,73,74,72,71,94,82,66,30.08,29.84,12,2,18,0.05
2013-8-4,77,72,67,72,68,63,100,91,75,30.10,29.98,6,1,13,0.50
2013-8-5,88,77,70,76,73,70,100,89,67,30.02,29.78,7,1,15,0.00
2013-8-6,91,80,71,78,74,70,100,84,63,29.83,29.73,10,2,18,0.25
2013-8-7,88,79,71,78,74,67,100,84,68,29.90,29.72,15,2,29,1.32
2013-8-8,76,72,69,69,67,64,89,82,73,29.97,29.81,15,2,16,0.01
2013-8-9,75,72,67,71,67,65,95,84,73,30.08,29.94,6,1,10,0.01
2013-8-10,86,75,66,68,65,61,100,74,49,30.16,30.05,10,1,18,0.01
2013-8-11,87,74,61,70,66,59,94,77,54,30.09,29.97,7,1,13,0.00
2013-8-12,84,75,68,72,70,67,100,84,61,30.00,29.91,22,2,30,0.54
2013-8-13,82,74,68,70,63,57,94,72,45,30.09,29.98,17,2,21,0.00
2013-8-14,81,70,62,63,60,56,91,72,48,30.17,30.06,8,1,18,0.00
2013-8-15,78,68,62,62,59,56,86,73,55,30.10,29.98,8,1,14,0.02
2013-8-16,79,69,61,61,58,57,86,70,51,30.14,30.05,9,1,20,0.00
2013-8-17,81,68,55,61,57,54,100,73,44,30.18,30.08,9,1,15,0.00
2013-8-18,84,70,57,65,60,56,96,75,48,30.15,30.05,7,1,15,0.00
2013-8-19,82,76,73,68,67,65,78,73,60,30.00,29.96,3,0,10,0.00
2013-8-20,90,78,68,70,67,64,88,70,49,30.03,29.94,10,2,16,0.00
2013-8-21,92,80,69,72,69,64,85,70,50,30.03,29.95,8,2,20,0.00
2013-8-22,93,81,71,73,70,68,90,71,49,30.06,29.96,6,1,12,0.00
2013-8-23,94,82,70,74,70,68,96,71,44,30.04,29.95,9,1,18,0.00
2013-8-24,93,82,72,75,72,69,92,73,51,30.08,29.99,9,2,20,0.00
2013-8-25,95,82,71,76,72,69,92,73,49,30.16,30.06,8,1,20,0.00
2013-8-26,96,84,74,74,72,70,87,69,47,30.11,30.00,10,2,18,0.00
2013-8-27,95,83,73,72,69,65,86,64,40,30.02,29.92,9,2,22,0.00
2013-8-28,95,83,72,74,70,67,89,68,47,30.00,29.94,6,1,15,0.00
2013-8-29,98,86,75,75,73,70,87,67,41,29.98,29.88,8,2,19,0.00
2013-8-30,82,81,79,74,72,71,78,74,70,29.89,29.88,3,0,7,0.00
2013-8-31,89,73,59,64,60,57,93,67,38,30.14,30.03,7,0,14,0.00
2013-9-3,88,88,88,61,60,59,41,40,38,30.09,30.09,1,1,6,0.00
2013-9-4,85,76,68,64,63,60,83,64,45,30.11,30.05,3,0,8,0.00
2013-9-5,90,76,61,66,63,59,95,67,38,30.17,30.07,8,1,13,0.00
2013-9-6,92,79,67,68,65,62,86,65,43,30.10,29.94,10,2,18,0.00
2013-9-7,99,84,71,72,68,64,80,62,40,29.95,29.83,8,2,20,0.00
2013-9-8,104,89,77,72,69,67,74,55,33,29.85,29.74,7,1,20,0.00
2013-9-9,98,86,76,69,66,62,72,54,33,29.89,29.80,10,2,28,0.00
2013-9-10,96,84,74,70,66,64,73,57,39,30.02,29.89,13,3,24,0.00
2013-9-11,98,83,71,67,64,60,78,55,31,30.08,29.97,8,1,16,0.00
2013-9-12,86,78,72,71,65,48,92,67,40,30.10,30.00,16,5,24,0.00
2013-9-13,78,68,58,53,50,48,75,55,37,30.15,30.03,16,3,26,0.00
2013-9-14,80,67,53,55,51,48,84,60,39,30.09,29.93,10,3,20,0.00
2013-9-15,88,73,65,69,62,54,88,68,50,30.11,29.91,21,5,29,0.04
2013-9-16,65,61,59,62,59,58,97,93,87,30.23,30.09,14,3,26,0.33
2013-9-17,72,66,62,69,65,60,100,96,87,30.18,29.95,10,2,20,0.91
2013-9-18,90,77,68,74,70,67,100,80,56,29.96,29.77,15,4,26,0.00
2013-9-19,94,78,67,73,69,66,100,76,44,29.88,29.68,13,4,32,1.75
2013-9-20,70,63,55,67,55,50,100,76,51,30.03,29.86,16,3,24,0.00
2013-9-21,79,62,48,53,50,47,100,70,36,30.05,29.91,6,0,11,0.00
2013-9-22,79,63,50,56,51,48,92,68,40,29.99,29.84,10,2,18,0.00
2013-9-23,79,65,53,57,54,51,92,70,43,29.92,29.76,15,4,26,0.00
2013-9-24,70,65,61,61,58,56,93,79,69,29.83,29.74,9,1,18,0.00
2013-9-25,81,67,57,65,61,57,100,83,56,29.88,29.80,8,1,15,0.00
2013-9-26,87,73,61,65,62,59,94,71,42,29.89,29.81,14,4,26,0.00
2013-9-27,88,76,66,66,63,62,86,68,43,29.93,29.82,14,4,24,0.00
2013-9-28,72,64,53,67,60,53,100,87,71,30.07,29.77,12,3,21,0.60
2013-9-29,76,60,46,61,52,46,100,79,41,30.12,29.95,6,0,10,0.01
2013-9-30,80,64,49,62,56,48,100,79,55,29.95,29.80,8,2,19,0.00
2013-10-1,84,70,57,69,64,55,100,82,56,29.94,29.83,8,1,16,0.00
2013-10-2,84,72,63,73,67,61,100,86,61,29.98,29.84,8,1,16,0.00
2013-10-3,86,75,65,74,69,62,95,83,61,29.85,29.69,16,5,34,0.00
2013-10-4,88,76,66,73,69,65,96,79,53,29.86,29.68,17,5,29,0.38
2013-10-5,66,54,48,65,43,37,96,66,46,30.02,29.85,5,1,15,0.01
2013-10-6,63,52,43,47,42,36,87,70,53,30.02,29.86,8,2,22,0.00
2013-10-7,75,57,43,49,45,39,91,67,38,30.16,30.01,3,0,8,0.00
2013-10-8,77,62,49,53,48,44,85,65,36,30.11,30.01,14,3,24,0.00
2013-10-9,78,64,51,53,50,47,86,64,38,30.09,30.00,12,3,34,0.00
2013-10-10,79,64,49,60,53,47,95,71,44,30.06,29.85,12,3,22,0.00
2013-10-11,76,67,57,66,61,54,94,81,70,29.86,29.74,17,4,30,0.26
2013-10-12,69,59,47,59,47,41,96,67,37,30.25,29.82,15,4,22,0.03
2013-10-13,71,57,45,44,41,38,90,58,32,30.41,30.25,13,2,22,0.00
2013-10-14,69,60,53,60,48,37,92,67,48,30.30,29.86,17,6,30,0.07
2013-10-15,62,55,45,60,47,39,97,76,51,30.08,29.86,13,1,29,0.10
2013-10-16,61,51,43,46,42,38,85,72,52,30.13,30.00,6,1,16,0.01
2013-10-17,68,54,42,48,43,37,94,70,36,30.03,29.90,6,1,15,0.01
2013-10-18,48,40,36,42,37,35,96,89,70,30.15,30.03,14,1,17,0.22
2013-10-19,63,46,34,43,38,32,100,76,41,30.14,29.92,5,1,12,0.00
2013-10-20,71,57,46,48,44,40,79,63,39,29.93,29.79,7,2,16,0.00
2013-10-21,56,48,41,46,37,31,82,65,43,30.13,29.93,15,4,27,0.00
2013-10-22,62,51,41,47,40,35,80,67,48,30.12,29.93,17,4,27,0.00
2013-10-23,52,43,33,39,35,31,95,74,52,30.20,30.07,6,1,13,0.00
2013-10-24,51,42,30,38,32,26,92,69,40,30.48,30.19,18,5,26,0.00
2013-10-25,58,43,28,35,29,26,95,62,31,30.52,30.19,10,2,20,0.00
2013-10-26,61,51,39,45,38,33,85,63,37,30.19,30.11,14,2,26,0.00
2013-10-27,65,46,29,38,33,28,100,64,32,30.19,29.97,9,1,16,0.00
2013-10-28,68,51,37,55,45,33,93,79,61,30.16,30.02,8,2,16,0.00
2013-10-29,66,58,51,66,57,49,100,98,86,30.14,29.93,8,1,14,1.13
2013-10-30,69,66,62,68,65,62,100,98,84,29.96,29.69,16,4,24,1.98
2013-10-31,63,51,47,63,50,44,100,96,83,29.70,29.54,12,2,21,1.25
2013-11-1,60,50,42,45,42,39,92,74,46,30.00,29.66,8,1,18,0.01
2013-11-2,56,46,38,41,38,34,91,74,44,30.22,30.00,10,1,26,0.00
2013-11-3,60,48,35,42,38,33,94,69,44,30.20,29.93,18,6,40,0.00
2013-11-4,60,56,49,53,48,42,87,77,64,30.11,29.90,17,4,28,0.16
2013-11-5,61,57,48,61,56,47,100,97,87,30.11,29.85,11,4,22,0.72
2013-11-6,48,39,33,46,36,31,100,91,72,30.38,29.92,11,2,19,0.17
2013-11-7,56,41,29,40,34,29,100,78,43,30.45,30.37,8,1,20,0.01
2013-11-8,65,51,33,41,36,29,94,60,33,30.37,29.92,19,6,35,0.00
2013-11-9,66,53,44,43,38,34,82,59,31,30.32,30.00,15,2,20,0.00
2013-11-10,60,51,41,40,35,30,69,56,36,30.44,30.23,11,3,16,0.00
2013-11-11,63,47,28,53,39,17,92,74,59,30.67,30.18,27,9,42,0.00
2013-11-12,35,25,18,18,15,12,84,66,39,30.93,30.67,22,6,30,0.00
2013-11-13,50,35,20,25,19,14,84,54,27,30.77,30.24,12,5,21,0.00
2013-11-14,55,45,35,31,29,25,68,53,36,30.24,30.00,12,6,29,0.00
2013-11-15,60,50,43,47,40,31,87,68,55,30.01,29.75,14,5,24,0.00
2013-11-16,69,63,50,62,57,47,91,82,70,29.76,29.41,21,11,37,0.00
2013-11-17,68,60,46,62,42,19,85,55,18,30.08,29.32,18,6,34,0.00
2013-11-18,59,45,36,37,31,25,89,61,31,30.32,30.08,4,1,11,0.00
2013-11-19,61,49,37,31,29,27,70,49,29,30.29,30.01,19,7,32,0.00
2013-11-20,51,47,40,42,35,22,90,66,33,30.02,29.88,18,6,30,0.08
2013-11-21,51,42,28,48,39,26,95,88,71,30.47,29.98,18,6,29,0.13
2013-11-22,30,27,23,26,23,19,92,87,83,30.70,30.46,24,8,32,0.00
2013-11-23,28,23,16,20,13,6,86,65,40,30.87,30.68,24,9,33,0.00
2013-11-24,27,21,12,16,11,6,81,65,50,30.85,30.43,9,4,16,0.00
2013-11-25,38,32,27,24,20,16,83,64,52,30.43,30.24,8,2,15,0.00
2013-11-26,37,30,22,27,21,11,91,71,44,30.48,30.23,32,8,45,0.00
2013-11-27,34,24,14,16,12,10,81,61,39,30.52,30.26,10,2,19,0.00
2013-11-28,42,33,26,26,21,16,73,61,52,30.55,30.24,17,4,21,0.00
2013-11-29,53,36,24,33,25,19,81,66,44,30.56,30.31,14,3,18,0.00
2013-11-30,56,43,34,40,34,25,95,71,54,30.31,30.11,10,2,19,0.00
2013-12-1,59,43,29,42,36,29,100,79,49,30.16,29.92,4,0,10,0.00
2013-12-2,52,44,36,46,41,35,100,90,78,29.92,29.64,9,2,16,0.00
2013-12-3,60,48,42,48,44,41,100,89,63,29.64,29.55,8,2,19,0.00
2013-12-4,46,35,23,45,32,15,100,89,70,30.10,29.52,7,2,16,0.01
2013-12-5,23,18,16,16,10,7,88,70,64,30.49,30.10,22,6,26,0.00
2013-12-6,18,14,10,7,2,-1,68,58,48,30.77,30.48,24,12,29,0.00
2013-12-7,21,14,5,7,3,0,80,63,47,30.85,30.48,15,7,21,0.00
2013-12-8,23,21,18,21,16,7,93,82,57,30.48,30.08,14,3,20,0.00
2013-12-9,20,12,9,17,7,3,92,77,62,30.53,30.27,8,1,15,0.00
2013-12-10,40,24,11,20,13,5,79,65,43,30.47,30.30,12,3,15,0.00
2013-12-11,27,21,11,20,12,4,86,68,44,30.73,30.32,28,6,36,0.00
2013-12-12,46,29,11,25,16,5,80,59,37,30.71,30.26,9,4,17,0.00
2013-12-13,37,34,28,35,31,24,97,90,80,30.25,29.91,8,3,15,0.07
2013-12-14,35,27,20,34,24,17,97,89,80,30.31,29.94,20,5,34,0.02
2013-12-15,50,35,18,34,26,16,93,72,52,30.31,30.03,7,2,16,0.00
2013-12-16,61,43,29,35,30,24,85,61,34,30.20,30.01,15,2,16,0.00
2013-12-17,47,36,26,33,26,22,94,71,43,30.35,30.19,8,1,21,0.00
2013-12-18,63,48,29,40,33,23,78,57,38,30.29,29.82,13,6,29,0.00
2013-12-19,57,54,49,53,48,39,86,78,58,29.82,29.65,11,4,22,0.00
2013-12-20,48,26,20,43,23,18,95,91,82,29.99,29.69,12,2,21,0.00
2013-12-21,28,25,21,27,23,18,95,91,88,29.97,29.69,13,4,20,0.00
2013-12-22,25,21,12,24,19,10,95,91,85,30.48,29.80,8,1,16,0.00
2013-12-23,15,10,5,10,6,2,92,82,73,30.75,30.46,13,1,18,0.00
2013-12-24,31,18,3,28,14,0,92,84,72,30.73,30.32,16,5,25,0.00
2013-12-25,41,32,28,31,28,25,93,84,66,30.42,30.34,8,1,10,0.09
2013-12-26,48,35,22,33,28,21,95,77,50,30.41,30.25,14,2,21,0.17
2013-12-27,55,39,25,37,31,24,96,75,43,30.41,30.24,9,1,19,0.01
2013-12-28,57,44,34,35,32,28,83,64,36,30.24,29.93,13,3,24,0.00
2013-12-29,40,18,11,33,9,-3,82,66,45,30.43,29.98,26,8,36,0.00
2013-12-30,30,19,9,18,6,-3,74,56,42,30.43,30.28,13,3,21,0.00
2013-12-31,51,34,17,30,23,14,91,65,42,30.43,30.12,15,4,28,0.00
2014-1-1,39,22,9,26,17,5,88,79,57,30.40,30.07,30,9,34,0.00
2014-1-2,18,8,1,6,2,-3,84,74,57,30.62,30.40,18,4,24,0.00